Погода в Заянье

Россия / Псковская область     58°46′47″N   28°37′33″E
темп.,
°C
ветер,
м/с
пор.,
м/с
влажн.,
%
обл.,
%
осадки,
мм/ч
давл.,
гПа
погр.,
м
8 мая, сб
сб800:00+3ю1192100 0.0 100510
03:00+4юв1191100 0.1 100410
06:00+4з1195100 0.5 100256
09:00+3зюз4797100 1.1 1004528
12:00+3зюз4994100 1.8 1005735
15:00+5з578091 2.1 1007987
18:00+4зсз389197 0.6 1009783
21:00+2з22935 0.7 101133
9 мая, вс
вс900:00+1з311895 0.0 1012289
03:000з311915 0.0 1014293
06:00−1з29935 0.0 1015204
09:00+6з36614 0.0 1017648
12:00+10з464522 0.0 10181549
15:00+12зюз463994 0.0 10192150
18:00+12юз363888 0.0 10192048
21:00+6ююв386553 0.0 1019151
10 мая, пн
пн1000:00+6ю31270100 0.0 1020327
03:00+6ю41281100 0.2 1020728
06:00+7ю51289100 0.8 1019637
09:00+8ююз4128552 0.8 1020479
12:00+17ююз5857100 0.0 1020933
15:00+20ююз585098 0.0 10201605
18:00+20ююз595590 0.0 10201681
21:00+16ю513696 0.0 1022604
11 мая, вт
вт1100:00+13ю41479100 0.0 1023523
03:00+12ю41383100 0.0 1024459
06:00+11ю4138199 0.0 1024450
09:00+15ю51260100 0.0 1025627
12:00+19ю584689 0.0 10251179
15:00+21ю584216 0.0 10251379
18:00+20ю484975 0.0 10241303
21:00+14юв3877100 0.0 1024162
12 мая, ср
ср1200:00+11ююв3118174 0.0 1025229
03:00+10ююв2887100 0.0 1025153
06:00+10ююв24855 0.0 102598
09:00+16юв355513 0.0 1025477
12:00+20юв354456 0.0 10241035
15:00+22юв444451 0.0 10231328
18:00+21вюв45495 0.0 10221296
21:00+15в26700 0.0 1021107